Location: Bittkow
(50.3000°N, 19.0000°E)
Time: 12:25:03
(UTC+00:00)

Cosmos 921 Rocket - Pass Details

Date: 19 September 2020
Orbit: 572 x 632 km, 75.8° (Epoch: 22 October)

Event Time Altitude Azimuth Distance (km) Brightness Sun altitude
Exits shadow 03:27:49 - 219° (SW) 2,032 5.2 -10.0°
Reaches altitude 10° 03:28:13 10° 221° (SW) 1,877 5.0 -10.0°
Maximum altitude 03:32:15 48° 296° (WNW) 758 3.2 -9.3°
Drops below altitude 10° 03:36:19 10° 11° (NNE) 1,892 5.9 -8.7°
Sets 03:38:36 0° 18° (NNE) 2,798 6.9 -8.4°
